Simultaneous Nadir Overpasses (SNOs) Predictions

Prediction of SNOs between AQUA and METOP-A Satellite Orbit:

Table of predicted SNOs for the next 14.0 days since TLE Epoch: 10/2/2021
Index Date (AQUA) Time (AQUA) Lat,Lon (AQUA) SZA (AQUA ) Date (METOP-A) Time (METOP-A) Lat,Lon (METOP-A) SZA (METOP-A ) Distance(km) Time Diff (sec)
1 10/04/2021 08:50:30 77.79, 29.69 82.62 10/04/2021 08:49:17 77.79, 29.80 82.64 2.63 73
2 10/04/2021 09:39:57 -77.82,-162.82 97.33 10/04/2021 09:39:58 -77.82,-162.75 97.34 1.69 1
3 10/04/2021 10:29:24 77.83, 4.78 82.70 10/04/2021 10:30:37 77.86, 4.76 82.71 2.90 73
4 10/07/2021 04:24:45 77.78, 96.15 83.68 10/07/2021 04:23:37 77.79, 96.12 83.71 0.88 68
5 10/07/2021 05:14:12 -77.81, -96.34 96.27 10/07/2021 05:14:18 -77.82, -96.42 96.26 1.70 6
6 10/07/2021 06:03:43 78.00, 70.45 83.98 10/07/2021 06:04:53 78.02, 71.89 83.90 33.36 70
7 10/09/2021 23:59:00 77.79, 162.57 84.75 10/09/2021 23:57:57 77.78, 162.44 84.77 3.27 63
8 10/10/2021 00:48:27 -77.82, -29.92 95.21 10/10/2021 00:48:37 -77.85, -29.90 95.17 3.98 10
9 10/10/2021 01:38:03 78.23, 135.83 85.31 10/10/2021 01:39:08 78.22, 139.24 85.12 77.41 65
10 10/12/2021 19:33:14 77.80,-131.06 85.82 10/12/2021 19:32:15 77.81,-131.06 85.84 1.13 59
11 10/12/2021 20:22:41 -77.83, 36.45 94.14 10/12/2021 20:22:56 -77.85, 36.41 94.13 1.68 15
12 10/15/2021 15:07:29 77.83, -64.74 86.89 10/15/2021 15:06:35 77.80, -64.77 86.87 3.38 54
13 10/15/2021 15:56:56 -77.86, 102.77 93.07 10/15/2021 15:57:16 -77.84, 102.70 93.10 3.33 20



Historial Predications of SNOs between AQUA and METOP-A
